Hourly Data Report for February 22, 2021

KUGAARUK CLIMATE
NUNAVUT
Current Station Operator: ECCC - MSC

68°32'15.060" N
89°47'47.020" W
15.80 m
2303094
71407
NBB

Download Data

Hourly Data (February 2021)
Hourly Data Report for February 22, 2021
TIME
LST
Temp Definition
°C
Dew Point Definition
°C
Rel Hum Definition
%
Precip. Amount Definition
mm

Wind Dir Definition
10's deg

Wind Spd Definition
km/h
Visibility Definition
km
Stn Press Definition
kPa
Hmdx Definition


Wind Chill Definition


Weather Definition


00:00 -23.6 -26.5 77 0.0 1 19   98.73   -35 LegendNANA
01:00 -22.7 -25.5 78 0.0 2 20   98.71   -34 LegendNANA
02:00 -22.0 -24.6 79 0.0 2 19   98.69   -33 LegendNANA
03:00 -21.9 -24.6 78 0.0 5 14   98.65   -31 LegendNANA
04:00 -21.7 -24.5 78 0.0 6 15   98.61   -31 LegendNANA
05:00 -22.1 -24.8 78 0.0 2 19   98.62   -33 LegendNANA
06:00 -22.4 -25.1 78 0.0 2 23   98.62   -34 LegendNANA
07:00 -22.5 -25.2 78 0.0 2 22   98.63   -34 LegendNANA
08:00 -22.7 -25.5 78 0.0 2 29   98.62   -36 LegendNANA
09:00 -22.7 -25.6 77 0.0 2 29   98.61   -36 LegendNANA
10:00 -23.1 -26.1 76 0.0 1 31   98.60   -37 LegendNANA
11:00 -23.6 -26.7 75 0.0 1 30   98.61   -37 LegendNANA
12:00 -23.5 -26.8 74 0.0 1 27   98.65   -37 LegendNANA
13:00 -23.6 -26.8 75 0.0 36 22   98.71   -36 LegendNANA
14:00 -23.6 -26.8 75 0.0 9 7   98.74   -30 LegendNANA
15:00 -23.3 -26.6 74 0.0 6 4   98.76   -27 LegendNANA
16:00 -23.5 -26.7 75 0.0 33 7   98.82   -30 LegendNANA
17:00 -23.6 -26.7 75 0.0 36 8   98.87   -30 LegendNANA
18:00 -24.5 -27.8 74 0.0 32 15   98.88   -35 LegendNANA
19:00 -24.8 -28.1 74 0.0 29 8   98.93   -32 LegendNANA
20:00 -25.8 -29.0 74 0.0 30 13   98.95   -35 LegendNANA
21:00 -26.3 -29.5 74 0.0 28 12   98.99   -36 LegendNANA
22:00 -27.1 -30.3 74 0.0 28 9   99.00   -35 LegendNANA
23:00 -26.6 -29.8 75 0.0 26 14   99.00   -37 LegendNANA

Notes on Data Quality.

Legend

  • E = Estimated
  • M = Missing
  • NA = Not Available*
  • [empty] = Indicates an unobserved value
Date modified: